TimeCDT,TemperatureF,Dew PointF,Humidity,Sea Level PressureIn,VisibilityMPH,Wind Direction,Wind SpeedMPH,Gust SpeedMPH,PrecipitationIn,Events,Conditions,WindDirDegrees,DateUTC
12:15 AM,73.8,67.1,80,30.08,7.0,SE,4.6,-,N/A,,Clear,130,2012-10-05 05:15:00
12:35 AM,72.9,66.7,81,30.08,10.0,ESE,4.6,-,N/A,,Clear,120,2012-10-05 05:35:00
12:55 AM,72.5,66.9,83,30.07,7.0,SE,4.6,-,N/A,,Clear,130,2012-10-05 05:55:00
1:15 AM,71.8,66.7,84,30.07,7.0,SE,5.8,-,N/A,,Clear,130,2012-10-05 06:15:00
1:35 AM,70.7,66.2,86,30.07,10.0,SE,4.6,-,N/A,,Clear,130,2012-10-05 06:35:00
1:55 AM,71.8,67.3,86,30.06,7.0,SSE,4.6,-,N/A,,Clear,150,2012-10-05 06:55:00
2:15 AM,71.6,67.1,86,30.06,10.0,SE,4.6,-,N/A,,Clear,140,2012-10-05 07:15:00
2:35 AM,70.7,66.4,86,30.06,7.0,SSE,3.5,-,N/A,,Clear,150,2012-10-05 07:35:00
2:55 AM,70.7,66.4,86,30.05,7.0,SSE,4.6,-,N/A,,Clear,150,2012-10-05 07:55:00
3:15 AM,69.8,66.2,88,30.05,7.0,Calm,Calm,-,N/A,,Clear,0,2012-10-05 08:15:00
3:35 AM,70.5,66.7,88,30.05,7.0,Calm,Calm,-,N/A,,Clear,0,2012-10-05 08:35:00
3:55 AM,70.2,66.4,88,30.04,7.0,South,6.9,-,N/A,,Clear,170,2012-10-05 08:55:00
4:15 AM,70.2,66.4,88,30.03,7.0,SSE,4.6,-,N/A,,Clear,150,2012-10-05 09:15:00
4:35 AM,68.5,65.3,89,30.03,7.0,SSE,3.5,-,N/A,,Clear,150,2012-10-05 09:35:00
4:55 AM,68.5,65.1,89,30.04,7.0,SE,3.5,-,N/A,,Clear,130,2012-10-05 09:55:00
5:15 AM,67.6,64.6,90,30.04,7.0,Calm,Calm,-,N/A,,Clear,0,2012-10-05 10:15:00
5:35 AM,68.4,65.1,89,30.04,5.0,SE,4.6,-,N/A,,Clear,140,2012-10-05 10:35:00
5:55 AM,67.3,64.4,90,30.04,5.0,ESE,3.5,-,N/A,,Clear,120,2012-10-05 10:55:00
6:15 AM,67.8,64.9,90,30.05,5.0,Calm,Calm,-,N/A,,Clear,0,2012-10-05 11:15:00
6:35 AM,66.7,63.9,90,30.05,5.0,Calm,Calm,-,N/A,,Clear,0,2012-10-05 11:35:00
6:55 AM,66.4,63.7,91,30.06,5.0,SE,4.6,-,N/A,,Clear,130,2012-10-05 11:55:00
7:15 AM,66.2,63.7,92,30.06,5.0,SE,3.5,-,N/A,,Clear,140,2012-10-05 12:15:00
7:35 AM,66.9,64.4,92,30.07,1.2,SE,3.5,-,N/A,,Mist,140,2012-10-05 12:35:00
7:55 AM,66.4,64.0,92,30.07,1.8,SE,3.5,-,N/A,,Mist,140,2012-10-05 12:55:00
8:15 AM,68.2,65.7,92,30.07,5.0,Calm,Calm,-,N/A,,Clear,0,2012-10-05 13:15:00
8:35 AM,70.3,67.6,91,30.08,4.0,Calm,Calm,-,N/A,,Clear,0,2012-10-05 13:35:00
8:55 AM,72.7,68.9,88,30.09,7.0,Calm,Calm,-,N/A,,Clear,0,2012-10-05 13:55:00
9:15 AM,76.6,68.7,76,30.09,7.0,South,4.6,-,N/A,,Clear,170,2012-10-05 14:15:00
9:35 AM,78.8,68.5,71,30.09,7.0,South,8.1,-,N/A,,Clear,170,2012-10-05 14:35:00
9:55 AM,81.1,68.5,65,30.10,7.0,South,9.2,-,N/A,,Clear,190,2012-10-05 14:55:00
10:15 AM,82.6,68.2,62,30.10,7.0,South,8.1,-,N/A,,Clear,180,2012-10-05 15:15:00
10:35 AM,84.2,68.2,58,30.10,7.0,SSE,8.1,-,N/A,,Clear,160,2012-10-05 15:35:00
10:55 AM,84.7,66.7,55,30.10,7.0,SSE,15.0,18.4,N/A,,Clear,160,2012-10-05 15:55:00
11:15 AM,86.2,66.2,51,30.09,7.0,South,9.2,18.4,N/A,,Clear,170,2012-10-05 16:15:00
11:35 AM,87.6,64.8,46,30.09,7.0,SE,11.5,-,N/A,,Scattered Clouds,140,2012-10-05 16:35:00
11:55 AM,88.2,64.9,46,30.09,7.0,South,10.4,16.1,N/A,,Clear,170,2012-10-05 16:55:00
12:15 PM,88.5,63.7,43,30.08,7.0,SSE,10.4,-,N/A,,Clear,160,2012-10-05 17:15:00
12:35 PM,89.4,63.9,42,30.07,7.0,SE,9.2,16.1,N/A,,Clear,140,2012-10-05 17:35:00
12:55 PM,89.8,63.5,41,30.06,7.0,SSE,9.2,-,N/A,,Clear,150,2012-10-05 17:55:00
1:35 PM,91.0,62.1,38,30.03,5.0,SSE,10.4,17.3,N/A,,Haze,150,2012-10-05 18:35:00
1:55 PM,91.6,61.7,37,30.02,5.0,SSE,8.1,-,N/A,,Haze,150,2012-10-05 18:55:00
2:15 PM,92.8,60.1,33,30.01,7.0,SE,6.9,-,N/A,,Clear,130,2012-10-05 19:15:00
2:35 PM,92.8,59.9,33,30.00,7.0,ESE,8.1,-,N/A,,Clear,120,2012-10-05 19:35:00
2:55 PM,93.2,59.9,33,29.99,7.0,SSE,11.5,16.1,N/A,,Clear,150,2012-10-05 19:55:00
3:15 PM,93.2,58.3,31,29.98,4.0,SE,10.4,-,N/A,,Haze,130,2012-10-05 20:15:00
3:35 PM,93.6,59.2,32,29.96,7.0,East,4.6,-,N/A,,Clear,80,2012-10-05 20:35:00
3:55 PM,93.7,59.2,31,29.96,10.0,SE,4.6,-,N/A,,Clear,140,2012-10-05 20:55:00
4:15 PM,94.6,57.9,29,29.95,7.0,SSE,8.1,-,N/A,,Clear,150,2012-10-05 21:15:00
4:35 PM,94.5,56.7,28,29.94,7.0,SE,6.9,-,N/A,,Clear,140,2012-10-05 21:35:00
4:55 PM,94.8,57.0,28,29.94,7.0,ESE,9.2,-,N/A,,Clear,120,2012-10-05 21:55:00
5:15 PM,94.5,57.2,29,29.94,7.0,SSE,6.9,-,N/A,,Clear,150,2012-10-05 22:15:00
5:35 PM,94.5,57.6,29,29.94,5.0,SE,11.5,-,N/A,,Haze,130,2012-10-05 22:35:00
5:55 PM,93.9,56.5,28,29.94,7.0,SE,9.2,-,N/A,,Clear,140,2012-10-05 22:55:00
6:15 PM,93.2,56.1,29,29.94,10.0,SE,9.2,-,N/A,,Clear,130,2012-10-05 23:15:00
6:35 PM,91.6,58.6,33,29.94,10.0,ESE,16.1,-,N/A,,Clear,110,2012-10-05 23:35:00
6:55 PM,89.1,58.5,35,29.95,7.0,ESE,15.0,-,N/A,,Clear,120,2012-10-05 23:55:00
7:15 PM,87.1,59.4,39,29.95,5.0,ESE,16.1,-,N/A,,Haze,110,2012-10-06 00:15:00
7:35 PM,85.6,59.5,41,29.96,10.0,ESE,13.8,-,N/A,,Clear,110,2012-10-06 00:35:00
7:55 PM,84.2,60.1,44,29.97,10.0,ESE,11.5,-,N/A,,Clear,110,2012-10-06 00:55:00
8:15 PM,83.3,62.2,49,29.97,10.0,ESE,12.7,-,N/A,,Clear,110,2012-10-06 01:15:00
8:35 PM,82.2,63.1,52,29.98,10.0,ESE,12.7,17.3,N/A,,Clear,110,2012-10-06 01:35:00
8:55 PM,81.3,64.0,56,29.98,10.0,ESE,11.5,-,N/A,,Clear,110,2012-10-06 01:55:00
9:15 PM,80.6,64.8,58,29.99,10.0,ESE,10.4,-,N/A,,Clear,120,2012-10-06 02:15:00
9:35 PM,79.5,65.3,62,29.99,7.0,ESE,10.4,-,N/A,,Clear,120,2012-10-06 02:35:00
9:55 PM,78.8,65.3,63,30.00,10.0,ESE,9.2,-,N/A,,Clear,120,2012-10-06 02:55:00
10:15 PM,77.9,65.5,65,30.00,7.0,SE,9.2,-,N/A,,Clear,130,2012-10-06 03:15:00
10:35 PM,76.6,65.5,68,30.00,10.0,SE,6.9,-,N/A,,Clear,140,2012-10-06 03:35:00
10:55 PM,75.0,65.3,72,30.00,7.0,SE,5.8,-,N/A,,Clear,130,2012-10-06 03:55:00
11:15 PM,74.1,65.3,74,30.00,7.0,SE,4.6,-,N/A,,Clear,140,2012-10-06 04:15:00
11:55 PM,73.4,65.3,76,29.99,7.0,SSE,6.9,-,N/A,,Clear,160,2012-10-06 04:55:00